| time (UTC) | temp C | wind direction | speed KPH | gust KPH | rain 1hr cm | rain 24hr cm | rain mn cm | humidity % | barometer mb |
| 20260507083639 | 12 | 93 | 0.0 | 0.0 | 0.00 | 0.00 | 0.00 | 68 | 1016.5 |
| 20260507081738 | 11 | 123 | 0.0 | 0.0 | 0.00 | 0.00 | 0.00 | 70 | 1016.5 |
| 20260507075839 | 11 | 94 | 0.0 | 0.0 | 0.00 | 0.00 | 0.00 | 71 | 1016.4 |
| 20260507073939 | 11 | 101 | 0.0 | 0.0 | 0.00 | 0.00 | 0.00 | 73 | 1016.4 |
| 20260507072038 | 10 | 273 | 0.0 | 0.0 | 0.00 | 0.00 | 0.00 | 74 | 1016.3 |
| 20260507070115 | 10 | 78 | 0.0 | 0.0 | 0.00 | 0.00 | 0.00 | 76 | 1016.2 |
| 20260507064214 | 10 | 66 | 0.0 | 0.0 | 0.00 | 0.00 | 0.00 | 76 | 1016.2 |
| 20260507062314 | 9 | 108 | 0.0 | 0.0 | 0.00 | 0.00 | 0.00 | 78 | 1016.1 |
| 20260507060415 | 9 | 79 | 0.0 | 0.0 | 0.00 | 0.00 | 0.00 | 79 | 1016.0 |
| 20260507054514 | 8 | 25 | 0.0 | 0.0 | 0.00 | 0.00 | 0.00 | 78 | 1015.9 |
| 20260507052615 | 8 | 34 | 0.0 | 0.0 | 0.00 | 0.00 | 0.00 | 78 | 1015.7 |
| 20260507050715 | 8 | 0 | 0.0 | 0.0 | 0.00 | 0.00 | 0.00 | 78 | 1015.7 |
| 20260507044816 | 8 | 0 | 0.0 | 0.0 | 0.00 | 0.00 | 0.00 | 78 | 1015.6 |
| 20260507042914 | 8 | 0 | 0.0 | 0.0 | 0.00 | 0.00 | 0.00 | 78 | 1015.5 |
| 20260507041015 | 8 | 0 | 0.0 | 0.0 | 0.00 | 0.00 | 0.00 | 78 | 1015.5 |
| 20260507035114 | 8 | 0 | 0.0 | 0.0 | 0.00 | 0.00 | 0.00 | 78 | 1015.4 |
| 20260507033214 | 8 | 0 | 0.0 | 0.0 | 0.00 | 0.00 | 0.00 | 78 | 1015.4 |
| 20260507031315 | 8 | 0 | 0.0 | 0.0 | 0.00 | 0.00 | 0.00 | 77 | 1015.4 |
| 20260507025414 | 9 | 0 | 0.0 | 0.0 | 0.00 | 0.00 | 0.00 | 77 | 1015.4 |
| 20260507023515 | 9 | 5 | 0.0 | 0.0 | 0.00 | 0.00 | 0.00 | 77 | 1015.3 |
| 20260507021615 | 9 | 61 | 0.0 | 0.0 | 0.00 | 0.00 | 0.00 | 76 | 1015.1 |
| 20260507015715 | 9 | 62 | 0.0 | 0.0 | 0.00 | 0.00 | 0.00 | 76 | 1015.0 |
| 20260507013814 | 9 | 76 | 0.0 | 0.0 | 0.00 | 0.00 | 0.00 | 75 | 1015.1 |
| 20260507011914 | 10 | 87 | 0.0 | 0.0 | 0.00 | 0.00 | 0.00 | 75 | 1015.0 |
| 20260507010015 | 10 | 88 | 0.0 | 0.0 | 0.00 | 0.00 | 0.00 | 75 | 1015.0 |
| 20260507004115 | 10 | 110 | 0.0 | 0.0 | 0.00 | 0.00 | 0.00 | 75 | 1015.0 |
| 20260507002214 | 10 | 76 | 0.0 | 0.0 | 0.00 | 0.00 | 0.00 | 75 | 1015.0 |
| 20260507000315 | 10 | 138 | 0.0 | 0.0 | 0.00 | 0.00 | 0.00 | 75 | 1015.0 |
| 20260506234415 | 10 | 61 | 0.0 | 0.0 | 0.00 | 0.00 | 0.00 | 75 | 1015.0 |
| 20260506232514 | 10 | 116 | 0.0 | 0.0 | 0.00 | 0.00 | 0.00 | 75 | 1015.0 |
| 20260506230614 | 11 | 89 | 0.0 | 0.0 | 0.00 | 0.00 | 0.00 | 75 | 1015.0 |
| 20260506224714 | 11 | 321 | 0.0 | 27.4 | 0.00 | 0.00 | 0.00 | 74 | 1014.9 |
| 20260506222814 | 11 | 320 | 0.0 | 27.4 | 0.00 | 0.00 | 0.00 | 73 | 1014.9 |
| 20260506220915 | 11 | 320 | 0.0 | 27.4 | 0.00 | 0.00 | 0.00 | 72 | 1014.8 |
| 20260506215014 | 11 | 320 | 0.0 | 27.4 | 0.00 | 0.00 | 0.00 | 71 | 1014.7 |
| 20260506213115 | 11 | 321 | 0.0 | 27.4 | 0.00 | 0.00 | 0.00 | 71 | 1014.7 |
| 20260506211214 | 11 | 316 | 0.0 | 27.4 | 0.00 | 0.00 | 0.00 | 70 | 1014.5 |
| 20260506205313 | 11 | 318 | 0.0 | 27.4 | 0.00 | 0.00 | 0.00 | 66 | 1014.5 |
| 20260506203413 | 11 | 311 | 0.0 | 27.4 | 0.00 | 0.00 | 0.00 | 63 | 1014.4 |
| 20260506201513 | 11 | 326 | 0.0 | 27.4 | 0.00 | 0.00 | 0.00 | 63 | 1014.2 |
| 20260506195614 | 12 | 308 | 0.0 | 27.4 | 0.00 | 0.00 | 0.00 | 64 | 1014.0 |
| 20260506193715 | 12 | 22 | 0.0 | 27.4 | 0.00 | 0.00 | 0.00 | 64 | 1013.8 |
| 20260506191815 | 12 | 14 | 0.0 | 27.4 | 0.00 | 0.00 | 0.00 | 63 | 1013.6 |
| 20260506185913 | 12 | 13 | 0.0 | 27.4 | 0.00 | 0.00 | 0.00 | 63 | 1013.5 |
| 20260506184014 | 12 | 17 | 0.0 | 27.4 | 0.00 | 0.00 | 0.00 | 62 | 1013.4 |
| 20260506182114 | 12 | 23 | 0.0 | 27.4 | 0.00 | 0.00 | 0.00 | 62 | 1013.3 |
| 20260506180215 | 12 | 45 | 0.0 | 27.4 | 0.00 | 0.00 | 0.00 | 61 | 1013.1 |
| 20260506174313 | 12 | 48 | 0.0 | 27.4 | 0.00 | 0.00 | 0.00 | 61 | 1012.9 |
| 20260506172415 | 12 | 50 | 0.0 | 27.4 | 0.00 | 0.00 | 0.00 | 58 | 1012.9 |
| 20260506170513 | 12 | 335 | 0.0 | 27.4 | 0.00 | 0.00 | 0.00 | 58 | 1012.9 |
| 20260506164614 | 12 | 353 | 0.0 | 27.4 | 0.00 | 0.00 | 0.00 | 58 | 1012.9 |
| 20260506162714 | 12 | 342 | 11.3 | 27.4 | 0.00 | 0.00 | 0.00 | 58 | 1012.9 |
| 20260506160814 | 12 | 351 | 1.6 | 27.4 | 0.00 | 0.00 | 0.00 | 57 | 1012.9 |
| 20260506154915 | 12 | 345 | 9.7 | 27.4 | 0.00 | 0.00 | 0.00 | 56 | 1012.9 |
| 20260506153015 | 12 | 333 | 11.3 | 27.4 | 0.00 | 0.00 | 0.00 | 56 | 1012.9 |
| 20260506151114 | 13 | 335 | 9.7 | 27.4 | 0.00 | 0.00 | 0.00 | 56 | 1012.9 |
| 20260506145213 | 12 | 309 | 3.2 | 27.4 | 0.00 | 0.00 | 0.00 | 57 | 1012.8 |
| 20260506143314 | 13 | 316 | 9.7 | 27.4 | 0.00 | 0.00 | 0.00 | 56 | 1012.8 |
| 20260506141414 | 13 | 330 | 4.8 | 27.4 | 0.00 | 0.00 | 0.00 | 56 | 1012.7 |
| 20260506135515 | 13 | 329 | 4.8 | 27.4 | 0.00 | 0.00 | 0.00 | 58 | 1012.8 |
| 20260506133614 | 12 | 324 | 11.3 | 27.4 | 0.00 | 0.00 | 0.00 | 58 | 1012.9 |
| 20260506131715 | 12 | 331 | 8.0 | 27.4 | 0.00 | 0.00 | 0.00 | 59 | 1013.0 |
| 20260506125814 | 12 | 330 | 1.6 | 27.4 | 0.00 | 0.00 | 0.00 | 60 | 1012.9 |
| 20260506123915 | 12 | 315 | 0.0 | 27.4 | 0.00 | 0.00 | 0.00 | 61 | 1012.9 |
| 20260506122013 | 12 | 337 | 4.8 | 27.4 | 0.00 | 0.00 | 0.00 | 63 | 1012.9 |
| 20260506120114 | 12 | 326 | 11.3 | 27.4 | 0.00 | 0.00 | 0.00 | 60 | 1013.0 |
| 20260506114214 | 12 | 326 | 9.7 | 27.4 | 0.00 | 0.00 | 0.00 | 59 | 1012.9 |
| 20260506112314 | 12 | 335 | 12.9 | 27.4 | 0.00 | 0.00 | 0.00 | 59 | 1012.9 |
| 20260506110415 | 12 | 338 | 9.7 | 27.4 | 0.00 | 0.00 | 0.00 | 58 | 1012.9 |
| 20260506104514 | 12 | 328 | 11.3 | 27.4 | 0.00 | 0.00 | 0.00 | 55 | 1012.8 |
| 20260506102614 | 12 | 322 | 11.3 | 27.4 | 0.00 | 0.00 | 0.00 | 58 | 1012.9 |
| 20260506100714 | 12 | 342 | 16.1 | 27.4 | 0.00 | 0.00 | 0.00 | 59 | 1012.9 |
| 20260506094815 | 11 | 326 | 3.2 | 27.4 | 0.00 | 0.00 | 0.00 | 59 | 1012.9 |
| 20260506092914 | 11 | 312 | 1.6 | 27.4 | 0.00 | 0.00 | 0.00 | 63 | 1012.9 |
| 20260506091014 | 11 | 327 | 9.7 | 27.4 | 0.00 | 0.00 | 0.00 | 65 | 1013.0 |
| 20260506085114 | 11 | 340 | 4.8 | 27.4 | 0.00 | 0.00 | 0.00 | 66 | 1012.9 |